Location: Unspecified
(0.0000°N, 0.0000°E)
Time: 12:54:11
(UTC+00:00)

Explorer 11/Cluster Stage 4 - Pass Details

Date: 22 December 2018
Orbit: 467 x 1260 km, 28.8° (Epoch: 25 March)

Event Time Altitude Azimuth Distance (km) Brightness Sun altitude
Rises 18:48:18 0° 247° (WSW) 4,146 12.5 -11.4°
Reaches altitude 10° 18:51:14 10° 251° (WSW) 3,216 11.2 -12.0°
Maximum altitude 18:59:22 61° 329° (NNW) 1,393 7.8 -13.9°
Enters shadow 19:05:26 18° 44° (NE) 2,554 8.6 -15.3°
